Weather History for Ingleside, TX

Change the Weather History Date:

Tuesday, February 19, 2013

  Actual Average Record
Temperature  
Mean Temperature 64 °F -  
Max Temperature 68 °F - - ()
Min Temperature 61 °F - - ()
Growing Degree Days 14 (Base 50)    
Moisture  
Dew Point 50 °F    
Average Humidity 62    
Maximum Humidity 94    
Minimum Humidity 42    
Precipitation  
Precipitation 0.00 in - - ()
Sea Level Pressure  
Sea Level Pressure 30.12 in    
Wind  
Wind Speed 14 mph (ENE)    
Max Wind Speed 23 mph    
Max Gust Speed 29 mph    
Visibility 10 miles    
Events      
T = Trace of Precipitation, MM = Missing Value Source: NWS Daily Summary

Daily Weather History Graph

Daily Weather History Graph

Search for Another Location

Airport:

Trip Planner

Search our weather history database for the weather conditions in past years. The results will help you decide how hot, cold, wet, or windy it might be!

Date:

Astronomy

Feb. 19, 2013 Rise Set
Actual Time 7:02 AM CST 6:22 PM CST
Civil Twilight 6:38 AM CST 6:46 PM CST
Nautical Twilight 6:11 AM CST 7:14 PM CST
Astronomical Twilight 5:44 AM CST 7:41 PM CST
Moon 1:10 PM CST (2/19) 2:20 AM CST (2/19)
Length of Visible Light 12h 07m
Length of Day
11h 20m
Waxing Gibbous, 67% of the Moon is Illuminated
Feb 19
Waxing Gibbous
Feb 25
Full
Mar 4
Last Quarter
Mar 11
New
Mar 19
First Quarter

Hourly Weather History & Observations

Time (CST) Temp. Dew Point Humidity Pressure Visibility Wind Dir Wind Speed Gust Speed Precip Events Conditions
12:15 AM 66.7 °F 63.9 °F 90% 29.99 in 10.0 mi South 8.1 mph - N/A   Clear
12:35 AM 66.2 °F 63.5 °F 91% 29.99 in 10.0 mi South 6.9 mph - N/A   Clear
12:55 AM 65.8 °F 63.1 °F 91% 30.00 in 7.0 mi South 4.6 mph - N/A   Clear
1:15 AM 64.8 °F 62.6 °F 93% 30.00 in 7.0 mi SSE 3.5 mph - N/A   Clear
1:35 AM 63.7 °F 61.7 °F 93% 30.02 in 5.0 mi Calm Calm - N/A   Clear
1:55 AM 63.5 °F 61.9 °F 94% 30.04 in 5.0 mi North 13.8 mph 19.6 mph N/A   Clear
2:15 AM 65.3 °F 63.5 °F 94% 30.05 in 10.0 mi North 10.4 mph 19.6 mph N/A   Mostly Cloudy
2:35 AM 67.5 °F 64.0 °F 89% 30.06 in 10.0 mi NNE 20.7 mph 28.8 mph N/A   Overcast
2:55 AM 64.8 °F 53.8 °F 68% 30.07 in 10.0 mi NE 17.3 mph 24.2 mph N/A   Overcast
3:15 AM 63.7 °F 47.1 °F 55% 30.07 in 10.0 mi NE 17.3 mph - N/A   Overcast
3:35 AM 63.5 °F 43.5 °F 48% 30.08 in 10.0 mi NE 15.0 mph 20.7 mph N/A   Overcast
3:55 AM 63.5 °F 42.8 °F 47% 30.08 in 10.0 mi NE 15.0 mph 21.9 mph N/A   Overcast
4:15 AM 63.3 °F 42.6 °F 47% 30.09 in 10.0 mi NE 13.8 mph 18.4 mph N/A   Overcast
4:35 AM 63.1 °F 42.6 °F 47% 30.09 in 10.0 mi NE 11.5 mph - N/A   Overcast
4:55 AM 63.0 °F 43.0 °F 48% 30.10 in 10.0 mi NE 11.5 mph - N/A   Overcast
5:15 AM 63.0 °F 42.8 °F 48% 30.11 in 10.0 mi NE 16.1 mph 19.6 mph N/A   Overcast
5:55 AM 62.6 °F 40.6 °F 45% 30.12 in 10.0 mi NE 15.0 mph 23.0 mph N/A   Overcast
6:15 AM 62.6 °F 39.7 °F 43% 30.12 in 10.0 mi NE 13.8 mph 19.6 mph N/A   Overcast
6:35 AM 62.6 °F 39.6 °F 43% 30.13 in 10.0 mi NE 16.1 mph 20.7 mph N/A   Overcast
6:55 AM 62.2 °F 40.5 °F 45% 30.14 in 10.0 mi NE 16.1 mph 21.9 mph N/A   Overcast
7:15 AM 61.9 °F 42.1 °F 48% 30.14 in 10.0 mi NE 15.0 mph 19.6 mph N/A   Overcast
7:35 AM 61.7 °F 43.7 °F 52% 30.15 in 10.0 mi ENE 15.0 mph 19.6 mph N/A   Overcast
7:55 AM 61.7 °F 43.3 °F 51% 30.16 in 10.0 mi ENE 18.4 mph 25.3 mph N/A   Scattered Clouds
8:15 AM 61.9 °F 43.2 °F 50% 30.17 in 10.0 mi ENE 17.3 mph 25.3 mph N/A   Clear
8:35 AM 62.1 °F 43.0 °F 50% 30.18 in 10.0 mi ENE 19.6 mph 26.5 mph N/A   Mostly Cloudy
8:55 AM 62.8 °F 41.7 °F 46% 30.19 in 10.0 mi ENE 23.0 mph 28.8 mph N/A   Mostly Cloudy
9:15 AM 63.1 °F 39.4 °F 42% 30.20 in 10.0 mi ENE 23.0 mph 28.8 mph N/A   Scattered Clouds
9:35 AM 63.3 °F 39.9 °F 42% 30.20 in 10.0 mi ENE 19.6 mph 26.5 mph N/A   Scattered Clouds
9:55 AM 63.5 °F 40.8 °F 43% 30.20 in 10.0 mi ENE 20.7 mph 27.6 mph N/A   Overcast
10:15 AM 63.5 °F 42.3 °F 46% 30.20 in 10.0 mi ENE 20.7 mph - N/A   Overcast
10:35 AM 64.8 °F 44.2 °F 47% 30.20 in 10.0 mi ENE 18.4 mph 24.2 mph N/A   Overcast
10:55 AM 65.3 °F 44.6 °F 47% 30.20 in 10.0 mi ENE 17.3 mph 26.5 mph N/A   Overcast
11:15 AM 65.3 °F 46.2 °F 50% 30.21 in 10.0 mi ENE 18.4 mph - N/A   Overcast
11:35 AM 64.9 °F 48.6 °F 55% 30.21 in 10.0 mi East 18.4 mph 23.0 mph N/A   Overcast
11:55 AM 64.8 °F 49.5 °F 58% 30.21 in 10.0 mi ENE 17.3 mph 25.3 mph N/A   Overcast
12:15 PM 64.8 °F 48.6 °F 56% 30.20 in 10.0 mi East 17.3 mph 25.3 mph N/A   Overcast
12:35 PM 64.9 °F 47.7 °F 54% 30.19 in 10.0 mi ENE 15.0 mph 23.0 mph N/A   Overcast
12:55 PM 65.3 °F 48.4 °F 54% 30.18 in 10.0 mi East 18.4 mph 23.0 mph N/A   Overcast
1:15 PM 65.5 °F 48.7 °F 55% 30.18 in 10.0 mi East 18.4 mph 23.0 mph N/A   Overcast
1:35 PM 67.1 °F 49.3 °F 53% 30.16 in 10.0 mi East 16.1 mph 25.3 mph N/A   Overcast
1:55 PM 68.7 °F 49.8 °F 51% 30.16 in 10.0 mi ENE 17.3 mph 24.2 mph N/A   Mostly Cloudy
2:15 PM 68.5 °F 49.8 °F 51% 30.15 in 10.0 mi East 17.3 mph 21.9 mph N/A   Scattered Clouds
2:35 PM 68.5 °F 50.4 °F 52% 30.14 in 10.0 mi East 19.6 mph 25.3 mph N/A   Scattered Clouds
2:55 PM 67.8 °F 51.1 °F 55% 30.13 in 10.0 mi East 19.6 mph 23.0 mph N/A   Mostly Cloudy
3:15 PM 67.6 °F 51.4 °F 56% 30.12 in 10.0 mi East 18.4 mph 25.3 mph N/A   Mostly Cloudy
3:35 PM 68.0 °F 51.8 °F 56% 30.12 in 10.0 mi East 20.7 mph 27.6 mph N/A   Scattered Clouds
3:55 PM 67.1 °F 52.2 °F 59% 30.11 in 10.0 mi East 18.4 mph 24.2 mph N/A   Scattered Clouds
4:15 PM 67.5 °F 52.5 °F 59% 30.10 in 10.0 mi East 19.6 mph 26.5 mph N/A   Scattered Clouds
4:35 PM 66.9 °F 53.2 °F 61% 30.10 in 10.0 mi East 17.3 mph 24.2 mph N/A   Clear
4:55 PM 66.4 °F 53.6 °F 63% 30.10 in 10.0 mi East 15.0 mph 23.0 mph N/A   Clear
5:15 PM 65.3 °F 53.6 °F 66% 30.10 in 10.0 mi East 17.3 mph 21.9 mph N/A   Clear
6:35 PM 63.1 °F 54.5 °F 73% 30.10 in 10.0 mi ENE 11.5 mph 17.3 mph N/A   Clear
7:35 PM 62.6 °F 55.2 °F 77% 30.10 in 10.0 mi ENE 15.0 mph 20.7 mph N/A   Clear
7:55 PM 62.6 °F 55.4 °F 77% 30.10 in 10.0 mi East 13.8 mph 18.4 mph N/A   Clear
8:15 PM 62.6 °F 55.8 °F 78% 30.10 in 10.0 mi East 17.3 mph - N/A   Clear
8:35 PM 62.6 °F 56.1 °F 79% 30.09 in 10.0 mi East 15.0 mph 21.9 mph N/A   Clear
9:15 PM 62.6 °F 56.3 °F 80% 30.09 in 10.0 mi East 15.0 mph 18.4 mph N/A   Clear
9:35 PM 62.8 °F 56.3 °F 79% 30.10 in 10.0 mi East 15.0 mph 21.9 mph N/A   Clear
9:55 PM 63.0 °F 56.7 °F 80% 30.10 in 10.0 mi East 12.7 mph 17.3 mph N/A   Clear
10:15 PM 63.3 °F 56.7 °F 79% 30.08 in 10.0 mi East 13.8 mph 21.9 mph N/A   Clear
10:35 PM 63.7 °F 56.3 °F 77% 30.07 in 10.0 mi East 13.8 mph - N/A   Clear
10:55 PM 63.9 °F 56.5 °F 77% 30.06 in 10.0 mi East 17.3 mph 23.0 mph N/A   Clear
11:15 PM 63.9 °F 57.0 °F 78% 30.05 in 10.0 mi East 17.3 mph 21.9 mph N/A   Clear
11:35 PM 64.0 °F 57.2 °F 78% 30.03 in 10.0 mi East 16.1 mph 24.2 mph N/A   Clear
11:55 PM 64.2 °F 57.2 °F 78% 30.02 in 10.0 mi East 16.1 mph 23.0 mph N/A   Clear